星链-1039 (STARLINK-1039 )

导读 | 星芒AI

STARLINK-1039 是 SpaceX Starlink 项目中的一颗低轨通信卫星,属于第二代 Starlink 卫星(Gen2)批次。该卫星于 2023 年发射,旨在为全球提供高速互联网服务。它运行在约 550 公里的轨道高度,配备先进通信设备和激光链路,以提升网络速度和稳定性。Starlink 卫星群致力于为偏远地区提供宽带接入,同时支持军事和应急通信需求。STARLINK-1039 的部署进一步增强了 Starlink 网络的覆盖能力与性能。

基本信息
目录编号:
44744
目录名称:
STARLINK-1039
国际标识:
2019-074AH
轨道中心:
EARTH
卫星名称:
星链-1039
卫星全名:
星链-1039 (STARLINK-1039 )
卫星状态:
在轨 (已飞行2179 天)
发射日期:
2019-11-11 UTC
国别 :
美国 (US)
星等 :
--
轨道信息
数据来源 国际轨道数据
星历时间: 2025-10-28T04:05:13+0800
1天前
查看轨道信息
半长轴: 6906.959km
偏心率: 0.0006524
轨道倾角: 53.050°
近地点辐角 136.869°
升交点赤经 101.142°
平近点角 223.281°
近地点: 524.317km
远地点: 533.331km
周期: 95.212分钟
每日圈数: 15.124203
详细信息
固有亮度:
5
最大亮度:
2.5
卫星平台:
Starlink V1.0
覆盖范围:
全球
运营商:
太空探索技术公司
运营商所在国:
美国
制造商(研发单位):
太空探索技术公司
制造商所在国:
美国
使用方式:
暂无
卫星简介
星链(Starlink)计划是由太空探索技术公司(SpaceX)提出的一个巨型低轨卫星互联网星座项目,计划在2019年至2024年间在太空搭建由约1.2万颗卫星组成的“星链”网络,其中1584颗将部署在地球上空550千米处的近地轨道,并从2020年开始工作。该卫星仍在工作。
2D轨道图
3D轨道图
轨道高度分析图
轨道倾角分析图
轨道综合分析图
查看轨道综合分析图